DIRECTV 15 (40663 NORAD) Tracking and Keplerian Element Data

This shows tracking and keplerian element data for the satellite.

Feedback or suggestion? Click here.




ElementValue
Catalog40663
NameDIRECTV 15
Epoch Orbit2316
Epoch Day262.15268969
Epoch Year2021
RAAN124.8407
Inclination0.013
Eccentricity5.41E-05
Argument of Perigee306.9501
Mean Anonmoly238.6084
Mean Motion1.00277503
Decay Rate-1.27E-06
L11 40663U 15026A 21262.15268969 -.00000127 00000-0 00000+0 0 9992
L22 40663 0.0130 124.8407 0000541 306.9501 238.6084 1.00277503 23163

Live tracking and technical data element details for DIRECTV 15 (NORAD 40663). DIRECTV 15 can be tracked NOW for your location showing map with azimuth and elevation plus other details from your city location.

Track the satellite on the map from your city or location and see movement details for azimuth, elevation, latitude, longitude, range, height, and movement on the map or in text.







IsCatalogInMostPopularTable: catalog: 40663, numindb: 651
Update: records affected: 1



GetName: 40663 DIRECTV 15

Hit Count: updated at: Sun, 26 Sep 2021 01:08:47 GMT